Time,TemperatureF,DewpointF,PressureIn,WindDirection,WindDirectionDegrees,WindSpeedMPH,WindSpeedGustMPH,Humidity,HourlyPrecipIn,Conditions,Clouds,dailyrainin,SoftwareType,DateUTC
2013-01-31 00:14:00,55.3,53.0,29.19,NE,52,7.0,15.0,93,0.03,,,0.00,weatherlink.com 1.10,2013-01-31 05:14:00,
2013-01-31 00:29:00,55.0,53.0,29.18,ENE,65,8.0,14.0,93,0.05,,,0.02,weatherlink.com 1.10,2013-01-31 05:29:00,
2013-01-31 00:44:00,55.3,53.0,29.17,NE,36,9.0,15.0,93,0.05,,,0.03,weatherlink.com 1.10,2013-01-31 05:44:00,
2013-01-31 00:59:00,54.9,53.0,29.15,NE,48,7.0,13.0,93,0.04,,,0.03,weatherlink.com 1.10,2013-01-31 05:59:00,
2013-01-31 01:14:00,55.2,53.0,29.12,ENE,65,10.0,16.0,93,0.04,,,0.04,weatherlink.com 1.10,2013-01-31 06:14:00,
2013-01-31 01:29:00,55.1,53.0,29.11,NE,36,4.0,16.0,92,0.04,,,0.06,weatherlink.com 1.10,2013-01-31 06:29:00,
2013-01-31 01:44:00,54.1,53.0,29.09,NE,48,6.0,11.0,94,0.04,,,0.07,weatherlink.com 1.10,2013-01-31 06:44:00,
2013-01-31 01:59:00,53.9,52.0,29.06,ENE,61,5.0,7.0,93,0.03,,,0.07,weatherlink.com 1.10,2013-01-31 06:59:00,
2013-01-31 02:14:00,53.8,52.0,29.04,NE,34,6.0,9.0,92,0.04,,,0.08,weatherlink.com 1.10,2013-01-31 07:14:00,
2013-01-31 02:29:00,54.0,52.0,29.02,NE,39,3.0,7.0,91,0.03,,,0.09,weatherlink.com 1.10,2013-01-31 07:29:00,
2013-01-31 02:44:00,54.2,51.0,29.00,NE,56,6.0,10.0,90,0.02,,,0.09,weatherlink.com 1.10,2013-01-31 07:44:00,
2013-01-31 02:59:00,54.1,51.0,28.98,ENE,63,7.0,13.0,90,0.03,,,0.10,weatherlink.com 1.10,2013-01-31 07:59:00,
2013-01-31 03:14:00,53.6,51.0,28.97,NE,34,8.0,12.0,91,0.02,,,0.10,weatherlink.com 1.10,2013-01-31 08:14:00,
2013-01-31 03:30:00,53.2,51.0,28.95,NE,42,8.0,10.0,91,0.02,,,0.11,weatherlink.com 1.10,2013-01-31 08:30:00,
2013-01-31 03:45:00,52.8,51.0,28.94,ENE,66,7.0,12.0,92,0.03,,,0.12,weatherlink.com 1.10,2013-01-31 08:45:00,
2013-01-31 04:00:00,51.9,50.0,28.91,NE,53,8.0,9.0,94,0.04,,,0.14,weatherlink.com 1.10,2013-01-31 09:00:00,
2013-01-31 04:15:00,52.2,51.0,28.89,NNE,28,8.0,10.0,95,0.04,,,0.14,weatherlink.com 1.10,2013-01-31 09:15:00,
2013-01-31 04:30:00,51.4,50.0,28.87,ENE,59,9.0,12.0,95,0.03,,,0.14,weatherlink.com 1.10,2013-01-31 09:30:00,
2013-01-31 04:45:00,53.4,52.0,28.85,NE,46,11.0,15.0,93,0.03,,,0.15,weatherlink.com 1.10,2013-01-31 09:45:00,
2013-01-31 05:00:00,53.7,52.0,28.84,NE,44,9.0,16.0,92,0.03,,,0.17,weatherlink.com 1.10,2013-01-31 10:00:00,
2013-01-31 05:15:00,53.8,52.0,28.82,NNE,19,12.0,16.0,93,0.05,,,0.19,weatherlink.com 1.10,2013-01-31 10:15:00,
2013-01-31 05:30:00,55.1,52.0,28.84,NE,39,11.0,19.0,89,0.08,,,0.22,weatherlink.com 1.10,2013-01-31 10:30:00,
2013-01-31 05:45:00,53.3,51.0,28.82,NE,56,7.0,14.0,93,0.11,,,0.26,weatherlink.com 1.10,2013-01-31 10:45:00,
2013-01-31 06:00:00,53.0,51.0,28.79,ENE,76,8.0,10.0,94,0.13,,,0.30,weatherlink.com 1.10,2013-01-31 11:00:00,
2013-01-31 06:15:00,53.1,52.0,28.81,NNE,28,10.0,13.0,94,0.14,,,0.33,weatherlink.com 1.10,2013-01-31 11:15:00,
2013-01-31 06:30:00,53.3,52.0,28.78,NE,53,7.0,15.0,94,0.12,,,0.34,weatherlink.com 1.10,2013-01-31 11:30:00,
2013-01-31 06:45:00,54.2,52.0,28.75,NE,44,5.0,14.0,92,0.08,,,0.34,weatherlink.com 1.10,2013-01-31 11:45:00,
2013-01-31 07:00:00,53.9,52.0,28.78,ENE,58,7.0,14.0,92,0.04,,,0.34,weatherlink.com 1.10,2013-01-31 12:00:00,
2013-01-31 07:15:00,55.0,52.0,28.79,NNE,32,20.0,24.0,88,0.02,,,0.35,weatherlink.com 1.10,2013-01-31 12:15:00,
2013-01-31 07:30:00,52.1,49.0,28.83,West,275,3.0,17.0,88,0.06,,,0.40,weatherlink.com 1.10,2013-01-31 12:30:00,
2013-01-31 07:45:00,47.4,45.0,28.85,West,270,4.0,9.0,90,0.10,,,0.44,weatherlink.com 1.10,2013-01-31 12:45:00,
2013-01-31 08:00:00,45.7,42.0,28.86,ENE,68,7.0,16.0,86,0.13,,,0.47,weatherlink.com 1.10,2013-01-31 13:00:00,
2013-01-31 08:15:00,44.5,41.0,28.89,NE,36,1.0,7.0,87,0.13,,,0.48,weatherlink.com 1.10,2013-01-31 13:15:00,
2013-01-31 08:30:00,43.9,39.0,28.91,ENE,70,3.0,11.0,83,0.07,,,0.48,weatherlink.com 1.10,2013-01-31 13:30:00,
2013-01-31 08:45:00,42.4,37.0,28.93,ENE,59,8.0,14.0,82,0.04,,,0.49,weatherlink.com 1.10,2013-01-31 13:45:00,
2013-01-31 09:00:00,40.3,36.0,28.95,ENE,60,0.0,14.0,84,0.04,,,0.51,weatherlink.com 1.10,2013-01-31 14:00:00,
2013-01-31 09:15:00,38.5,35.0,28.96,ENE,61,2.0,9.0,88,0.08,,,0.56,weatherlink.com 1.10,2013-01-31 14:15:00,
2013-01-31 09:31:00,37.0,35.0,28.96,NE,52,1.0,10.0,91,0.13,,,0.61,weatherlink.com 1.10,2013-01-31 14:31:00,
2013-01-31 09:46:00,37.9,35.0,28.96,NE,55,12.0,14.0,90,0.13,,,0.62,weatherlink.com 1.10,2013-01-31 14:46:00,
2013-01-31 10:01:00,38.6,35.0,28.97,NE,55,7.0,13.0,87,0.11,,,0.62,weatherlink.com 1.10,2013-01-31 15:01:00,
2013-01-31 10:16:00,38.8,34.0,28.99,ENE,57,3.0,13.0,83,0.06,,,0.62,weatherlink.com 1.10,2013-01-31 15:16:00,
2013-01-31 10:31:00,38.3,34.0,29.00,SSW,202,0.0,14.0,84,0.01,,,0.62,weatherlink.com 1.10,2013-01-31 15:31:00,
2013-01-31 10:46:00,37.5,32.0,29.01,NNE,32,0.0,12.0,80,0.00,,,0.62,weatherlink.com 1.10,2013-01-31 15:46:00,
2013-01-31 11:01:00,37.2,32.0,29.03,SW,228,0.0,6.0,80,0.00,,,0.62,weatherlink.com 1.10,2013-01-31 16:01:00,
2013-01-31 11:16:00,37.1,31.0,29.04,SSE,163,1.0,8.0,77,0.00,,,0.62,weatherlink.com 1.10,2013-01-31 16:16:00,
2013-01-31 11:31:00,36.6,28.0,29.04,ENE,62,0.0,9.0,72,0.00,,,0.62,weatherlink.com 1.10,2013-01-31 16:31:00,
2013-01-31 11:46:00,35.9,29.0,29.05,SW,221,1.0,5.0,75,0.00,,,0.62,weatherlink.com 1.10,2013-01-31 16:46:00,
2013-01-31 12:01:00,36.0,27.0,29.06,ENE,61,4.0,17.0,69,0.00,,,0.62,weatherlink.com 1.10,2013-01-31 17:01:00,
2013-01-31 12:16:00,36.2,25.0,29.06,ENE,76,2.0,11.0,65,0.00,,,0.62,weatherlink.com 1.10,2013-01-31 17:16:00,
2013-01-31 12:31:00,36.2,25.0,29.07,ENE,59,8.0,19.0,63,0.00,,,0.62,weatherlink.com 1.10,2013-01-31 17:31:00,
2013-01-31 12:46:00,35.9,24.0,29.08,ENE,69,9.0,17.0,63,0.00,,,0.62,weatherlink.com 1.10,2013-01-31 17:46:00,
2013-01-31 13:01:00,35.5,23.0,29.10,NE,48,9.0,18.0,61,0.00,,,0.62,weatherlink.com 1.10,2013-01-31 18:01:00,
2013-01-31 13:16:00,35.1,24.0,29.11,NNE,24,14.0,18.0,63,0.00,,,0.62,weatherlink.com 1.10,2013-01-31 18:16:00,
2013-01-31 13:31:00,34.5,22.0,29.12,NE,40,7.0,22.0,60,0.00,,,0.62,weatherlink.com 1.10,2013-01-31 18:31:00,
2013-01-31 13:46:00,33.7,23.0,29.12,ENE,77,17.0,20.0,65,0.00,,,0.62,weatherlink.com 1.10,2013-01-31 18:46:00,
2013-01-31 14:01:00,33.4,21.0,29.13,NNE,32,7.0,22.0,60,0.00,,,0.62,weatherlink.com 1.10,2013-01-31 19:01:00,
2013-01-31 14:16:00,33.0,20.0,29.15,NE,48,4.0,23.0,59,0.00,,,0.62,weatherlink.com 1.10,2013-01-31 19:16:00,
2013-01-31 14:32:00,33.0,21.0,29.16,ENE,78,1.0,16.0,62,0.00,,,0.62,weatherlink.com 1.10,2013-01-31 19:32:00,
2013-01-31 14:46:00,32.5,20.0,29.15,ENE,73,9.0,17.0,60,0.00,,,0.62,weatherlink.com 1.10,2013-01-31 19:46:00,
2013-01-31 15:02:00,32.4,20.0,29.17,ESE,115,2.0,19.0,60,0.00,,,0.62,weatherlink.com 1.10,2013-01-31 20:02:00,
2013-01-31 15:16:00,32.4,19.0,29.18,ENE,57,5.0,19.0,58,0.00,,,0.62,weatherlink.com 1.10,2013-01-31 20:16:00,
2013-01-31 15:31:00,31.9,19.0,29.19,ENE,63,0.0,36.0,60,0.00,,,0.62,weatherlink.com 1.10,2013-01-31 20:31:00,
2013-01-31 15:47:00,31.7,20.0,29.21,NE,42,10.0,29.0,61,0.00,,,0.62,weatherlink.com 1.10,2013-01-31 20:47:00,
2013-01-31 16:01:00,31.1,19.0,29.21,ENE,72,16.0,28.0,62,0.00,,,0.62,weatherlink.com 1.10,2013-01-31 21:01:00,
2013-01-31 16:16:00,30.7,19.0,29.22,NNE,26,5.0,25.0,63,0.00,,,0.62,weatherlink.com 1.10,2013-01-31 21:16:00,
2013-01-31 16:31:00,30.9,18.0,29.23,North,5,5.0,15.0,59,0.00,,,0.62,weatherlink.com 1.10,2013-01-31 21:31:00,
2013-01-31 16:46:00,30.1,20.0,29.26,ENE,57,8.0,22.0,66,0.00,,,0.62,weatherlink.com 1.10,2013-01-31 21:46:00,
2013-01-31 17:01:00,29.5,20.0,29.26,South,172,0.0,14.0,68,0.00,,,0.62,weatherlink.com 1.10,2013-01-31 22:01:00,
2013-01-31 17:17:00,28.2,22.0,29.27,NE,40,13.0,17.0,77,0.00,,,0.62,weatherlink.com 1.10,2013-01-31 22:17:00,
2013-01-31 17:32:00,27.6,22.0,29.29,NNE,33,2.0,14.0,78,0.00,,,0.62,weatherlink.com 1.10,2013-01-31 22:32:00,
2013-01-31 17:46:00,27.3,23.0,29.29,ENE,67,7.0,17.0,82,0.00,,,0.62,weatherlink.com 1.10,2013-01-31 22:46:00,
2013-01-31 18:02:00,27.6,22.0,29.30,NE,34,2.0,13.0,78,0.00,,,0.62,weatherlink.com 1.10,2013-01-31 23:02:00,
2013-01-31 18:17:00,27.8,21.0,29.32,South,173,1.0,15.0,77,0.00,,,0.62,weatherlink.com 1.10,2013-01-31 23:17:00,
2013-01-31 18:31:00,27.4,21.0,29.32,NE,46,4.0,12.0,76,0.00,,,0.62,weatherlink.com 1.10,2013-01-31 23:31:00,
2013-01-31 18:47:00,27.3,20.0,29.33,ENE,61,1.0,9.0,75,0.00,,,0.62,weatherlink.com 1.10,2013-01-31 23:47:00,
2013-01-31 19:01:00,27.3,19.0,29.34,NW,316,4.0,11.0,70,0.00,,,0.62,weatherlink.com 1.10,2013-02-01 00:01:00,
2013-01-31 19:17:00,27.3,14.0,29.36,SSW,205,4.0,13.0,57,0.00,,,0.62,weatherlink.com 1.10,2013-02-01 00:17:00,
2013-01-31 19:32:00,27.2,13.0,29.37,SSE,149,0.0,13.0,55,0.00,,,0.62,weatherlink.com 1.10,2013-02-01 00:32:00,
2013-01-31 19:48:00,26.9,12.0,29.38,West,259,1.0,22.0,53,0.00,,,0.62,weatherlink.com 1.10,2013-02-01 00:48:00,
2013-01-31 20:02:00,26.4,12.0,29.38,East,94,1.0,18.0,54,0.00,,,0.62,weatherlink.com 1.10,2013-02-01 01:02:00,
2013-01-31 20:17:00,25.9,12.0,29.39,SSW,197,0.0,10.0,56,0.00,,,0.62,weatherlink.com 1.10,2013-02-01 01:17:00,
2013-01-31 20:32:00,25.7,12.0,29.40,NNE,30,6.0,20.0,57,0.00,,,0.62,weatherlink.com 1.10,2013-02-01 01:32:00,
2013-01-31 20:47:00,25.1,12.0,29.40,East,80,2.0,14.0,58,0.00,,,0.62,weatherlink.com 1.10,2013-02-01 01:47:00,
2013-01-31 21:02:00,24.8,11.0,29.41,WSW,249,2.0,14.0,57,0.00,,,0.62,weatherlink.com 1.10,2013-02-01 02:02:00,
2013-01-31 21:17:00,24.7,9.0,29.41,WSW,254,7.0,15.0,51,0.00,,,0.62,weatherlink.com 1.10,2013-02-01 02:17:00,
2013-01-31 21:32:00,24.2,10.0,29.42,WSW,258,6.0,10.0,56,0.00,,,0.62,weatherlink.com 1.10,2013-02-01 02:32:00,
2013-01-31 21:47:00,24.1,9.0,29.43,SSE,165,6.0,16.0,53,0.00,,,0.62,weatherlink.com 1.10,2013-02-01 02:47:00,
2013-01-31 22:02:00,23.6,10.0,29.44,NE,34,4.0,7.0,56,0.00,,,0.62,weatherlink.com 1.10,2013-02-01 03:02:00,
2013-01-31 22:17:00,23.8,10.0,29.45,West,260,2.0,22.0,56,0.00,,,0.62,weatherlink.com 1.10,2013-02-01 03:17:00,
2013-01-31 22:32:00,23.4,10.0,29.46,NNE,31,1.0,10.0,56,0.00,,,0.62,weatherlink.com 1.10,2013-02-01 03:32:00,
2013-01-31 22:47:00,23.2,9.0,29.46,SSW,210,2.0,5.0,56,0.00,,,0.62,weatherlink.com 1.10,2013-02-01 03:47:00,
2013-01-31 23:02:00,23.1,9.0,29.46,ENE,61,0.0,16.0,56,0.00,,,0.62,weatherlink.com 1.10,2013-02-01 04:02:00,
2013-01-31 23:18:00,22.7,9.0,29.47,NNE,27,6.0,10.0,57,0.00,,,0.62,weatherlink.com 1.10,2013-02-01 04:18:00,
2013-01-31 23:33:00,22.6,9.0,29.47,NE,44,4.0,18.0,56,0.00,,,0.62,weatherlink.com 1.10,2013-02-01 04:33:00,
2013-01-31 23:48:00,22.5,10.0,29.48,East,90,1.0,13.0,58,0.00,,,0.62,weatherlink.com 1.10,2013-02-01 04:48:00,